SCP
0 0 0 0 0 0 0 0 0 0 0 0 0 0 0 0 0 0 0 0 0 0 0 0 0 0 0 0 0 0 0 0 0 0 0 0 0 0 0 0 0 0 0 0 0
0 0 0 0 0 0 0 0 0 0 0 0 0 0 0 0 0 0 0 0 0 0 0 0 0 0 0 0 0 0 0 0 0 0 0 0 0 0 0 0 0 0 0 0 0
0 0 0 0 0 0 0 0 0 0 0 0 0 0 0 0 0 0 0 0 0 0 0 0 0 0 0 0 0 0 0 0 0 0 0 0 0 0 0 0 0 0 0 0 0
0 0 0 0 0 0 0 0 0 0 0 0 0 0 0 0 0 0 0 0 0 0 0 0 0 0 0 0 0 0 0 0 0 0 0 0 0 0 0 0 0 0 0 0 0
0 0 0 0 0 0 0 0 0 0 0 0 0 0 0 0 0 0 0 0 0 0 0 0 0 0 0 0 0 0 0 0 0 0 0 0 0 0 0 0 0 0 0 0 0
0 0 0 0 0 0 0 0 0 0 0 0 0 0 0 0 0 0 0 0 0 0 0 0 0 0 0 0 0 0 0 0 0 0 0 0 0 0 0 0 0 0 0 0 0
0 0 0 0 0 0 0 0 0 0 0 0 0 0 0 0 0 0 0 0 0 0 0 0 0 0 0 0 0 0 0 0 0 0 0 0 0 0 0 0 0 0 0 0 0
0 0 0 0 0 0 0 0 0 0 0 0 0 0 0 0 0 0 0 0 0 0 0 0 0 0 0 0 0 0 0 0 0 0 0 0 0 0 0 0 0 0 0 0 0
0 0 0 0 0 0 0 0 0 0 0 0 0 0 0 0 0 0 0 0 0 0 0 0 0 0 0 0 0 0 0 0 0 0 0 0 0 0 0 0 0 0 0 0 0
0 0 0 0 0 0 0 0 0 0 0 0 0 0 0 0 0 0 0 0 0 0 0 0 0 0 0 0 0 0 0 0 0 0 0 0 0 0 0 0 0 0 0 0 0
0 0 0 0 0 0 0 0 0 0 0 0 0 0 0 0 0 0 0 0 0 0 0 0 0 0 0 0 0 0 0 0 0 0 0 0 0 0 0 0 0 0 0 0 0
0 0 0 0 0 0 0 0 0 0 0 0 0 0 0 0 0 0 0 0 0 0 0 0 0 0 0 0 0 0 0 0 0 0 0 0 0 0 0 0 0 0 0 0 0
0 0 0 0 0 0 0 0 0 0 0 0 0 0 0 0 0 0 0 0 0 0 0 0 0 0 0 0 0 0 0 0 0 0 0 0 0 0 0 0 0 0 0 0 0
0 0 0 0 0 0 0 0 0 0 0 0 0 0 0 0 0 0 0 0 0 0 0 0 0 0 0 0 0 0 0 0 0 0 0 0 0 0 0 0 0 0 0 0 0
0 0 0 0 0 0 0 0 0 0 0 0 0 0 0 0 0 0 0 0 0 0 0 0 0 0 0 0 0 0 0 0 0 0 0 0 0 -0 -0 0 0 0 0 0 0
0 0 0 0 0 0 0 0 0 0 0 0 0 0 0 0 0 0 0 0 0 0 0 0 0 0 0 0 0 0 0 0 0 0 0 0 0 -0 0 0 0 0 0 0 0
0 0 0 0 0 0 0 0 0 0 0 0 0 0 0 0 0 0 0 0 0 0 0 0 0 0 0 0 0 0 0 0 0 0 0 0 0 0 0 0 0 0 0 0 0
0 0 0 0 0 0 0 0 0 0 0 0 0 0 0 0 0 0 0 0 0 0 0 0 0 0 0 0 0 0 0 0 0 0 0 0 0 0 0 0 0 -0 0 0 0
0 0 0 0 0 0 0 0 0 0 0 0 0 -0 0 0 0 0 0 0 0 0 0 0 0 0 0 0 0 0 0 0 0 0 0 0 0 0 0 0 0 0 0 0 0
0 0 0 0 0 0 0 0 0 0 0 0 0 -0 -0 -0 0 0 0 0 0 0 0 0 0 0 0 0 0 0 0 0 0 0 0 0 0 0 0 -0 -0 -0 0 0 0
0 0 0 0 0 0 0 0 0 0 0 0 0 0 -0 -0 -0 -0 0 0 0 0 0 0 0 0 0 0 0 0 0 0 0 0 0 0 0 0 0 0 0 0 0 0 0
0 0 0 0 0 0 0 0 0 0 0 0 0 0 0 0 -0 -0 -0 -0 0 0 0 0 0 0 0 0 0 0 0 0 0 0 0 0 0 0 -0 0 0 0 0 0 0
0 0 0 0 0 0 0 0 0 0 0 0 0 0 0 0 -0 -0 -0 -0 0 0 0 0 0 0 0 0 0 0 0 0 0 0 0 0 0 0 0 0 0 0 0 0 0
0 0 0 0 0 0 0 0 0 0 0 0 0 0 0 0 -0 -0 -0 -0 -0 -0 0 0 0 0 0 0 0 0 0 0 0 0 0 0 0 0 0 0 -0 -0 -0 0 0
0 0 0 0 0 0 0 0 0 0 0 0 0 0 0 0 -0 -0 -0 -0 -0 -0 -0 -0 0 0 0 0 0 0 0 0 0 0 0 0 0 0 0 0 0 0 -0 -0 -0
0 0 0 0 0 0 0 0 0 0 0 0 0 0 0 0 0 -0 -0 -0 -0 -0 -0 -0 0 0 0 0 0 0 0 0 0 0 0 0 0 0 0 0 0 -0 -0 -0 -0
0 0 0 0 0 0 0 0 0 0 0 0 0 0 0 0 0 -0 -0 -0 -0 -0 -0 -0 0 0 0 0 0 0 0 0 0 0 0 0 -0 0 0 0 0 0 0 0 0
Wind_Speed_500mb
29 26 27 28 26 31 31 28 27 29 31 34 34 35 37 40 38 35 33 23 23 23 24 24 18 15 10 10 15 12 3 8 11 14 9 7 5 2 5 10 14 17 16 11 11
26 26 29 29 32 29 27 30 31 29 30 34 37 35 37 42 41 39 23 27 28 29 26 25 20 16 9 11 12 11 8 15 14 14 9 5 7 3 5 6 10 20 29 24 20
31 31 34 34 29 34 36 35 33 32 33 35 38 38 38 43 38 6 7 4 6 15 18 18 18 14 12 12 18 11 16 10 12 27 14 8 9 7 7 6 23 22 31 36 35
33 36 39 39 38 39 37 39 39 36 33 33 39 41 38 38 11 5 8 7 7 9 11 10 15 12 10 12 16 6 24 19 12 22 9 10 8 10 19 25 33 26 30 37 45
43 45 49 44 40 36 35 37 37 39 36 31 34 41 39 25 26 22 23 23 19 16 12 9 14 11 9 9 8 7 13 11 39 37 35 32 27 28 24 45 41 38 35 34 49
34 35 36 35 37 37 35 33 36 37 36 32 31 39 34 15 12 16 19 25 29 22 15 11 6 9 10 9 11 3 14 23 22 26 19 12 20 12 24 28 35 37 42 43 50
49 46 40 38 36 40 40 40 41 43 38 35 30 32 42 53 28 42 42 35 28 23 18 13 13 13 2 8 8 10 10 15 14 19 13 25 17 23 79 66 58 44 41 42 49
49 43 42 46 40 37 38 43 41 41 39 35 35 33 38 54 65 60 41 48 41 31 24 15 13 11 11 9 10 4 3 7 9 23 24 21 18 19 45 61 71 61 54 51 50
42 44 48 49 55 47 40 40 36 36 42 32 36 29 35 45 43 7 9 25 33 45 35 16 7 13 8 8 8 8 8 15 13 20 5 18 7 10 23 45 60 68 68 64 63
43 52 53 43 44 54 51 44 46 41 38 30 30 18 38 29 15 12 14 11 13 20 20 22 15 5 3 7 16 22 12 9 9 2 7 8 15 25 42 20 50 63 64 62 61
49 47 47 43 37 34 46 49 42 18 37 32 18 33 4 12 16 15 11 14 16 16 12 9 7 17 24 30 2 4 8 10 5 8 6 14 21 34 41 29 43 59 59 60 62
41 42 45 41 42 36 31 27 25 6 19 46 65 59 58 44 16 25 20 17 13 11 10 3 28 21 15 13 15 12 9 12 11 13 7 15 30 25 22 20 43 60 65 76 71
43 42 43 35 38 36 36 44 45 41 16 26 60 75 63 71 47 45 35 17 10 14 17 15 9 15 26 13 20 24 35 14 15 6 10 7 33 15 22 34 54 67 73 76 74
39 39 37 35 34 34 32 29 29 37 13 13 25 42 53 43 29 84 58 28 11 24 18 16 20 15 11 18 24 32 20 18 13 8 12 5 21 20 15 18 17 43 58 78 75
37 37 35 26 26 18 16 11 17 23 17 7 13 18 37 56 15 33 86 58 45 18 15 24 15 17 26 21 24 16 18 23 16 15 4 15 6 11 12 27 22 26 63 76 71
42 36 33 32 36 38 33 28 20 6 17 6 5 13 19 49 6 8 29 40 24 10 10 18 6 16 20 14 29 7 6 6 6 8 9 33 20 38 20 21 17 19 59 66 66
47 41 35 34 40 28 22 12 7 13 15 8 7 7 19 24 34 11 21 34 20 16 28 22 33 5 9 9 7 15 12 3 1 6 19 10 21 42 14 11 15 19 49 65 67
47 45 41 42 33 28 21 7 16 8 12 11 3 24 17 12 23 26 19 32 39 4 7 25 20 34 24 37 15 33 28 11 15 10 9 11 16 21 26 34 42 50 65 64 48
48 51 55 48 38 36 23 14 14 14 7 7 19 23 25 25 15 37 26 39 31 39 22 14 16 4 14 16 31 15 18 30 5 2 2 11 15 14 16 21 18 39 42 56 59
53 61 79 57 42 39 15 23 14 16 11 6 7 7 9 16 5 22 11 17 43 41 10 11 5 10 4 12 13 22 14 13 9 6 9 10 10 12 5 24 24 21 19 40 40
62 33 65 44 50 27 18 15 15 19 16 10 10 7 13 8 8 8 11 31 40 17 43 6 9 2 9 16 30 13 14 12 12 10 12 14 18 16 29 25 17 12 23 28 28
55 15 36 61 20 10 26 17 15 11 35 20 11 15 18 7 10 10 23 24 36 33 30 43 9 10 18 7 6 27 41 30 13 15 24 9 25 8 12 6 6 15 17 14 17
48 34 31 70 18 18 7 10 27 16 15 15 17 16 12 8 10 14 23 9 33 14 7 5 15 1 11 6 2 13 26 32 36 5 27 18 27 11 12 10 12 16 7 7 8
28 11 25 62 35 35 16 11 11 30 17 19 11 12 16 25 22 13 30 21 18 32 38 37 14 33 32 32 15 14 18 34 21 22 43 35 35 23 11 14 8 20 13 10 11
42 14 26 8 27 38 34 24 22 16 21 38 9 40 25 10 12 26 40 38 36 29 19 8 16 29 42 11 13 19 31 27 40 51 29 61 47 39 19 21 17 21 21 22 29
35 15 16 14 45 26 26 17 32 24 17 13 23 13 17 25 38 30 34 25 24 7 13 11 23 23 19 20 18 13 16 29 41 48 40 58 47 20 20 32 30 46 22 32 39
63 65 30 18 23 27 24 51 46 23 24 39 28 20 30 39 20 53 43 45 41 25 16 12 9 2 18 10 15 7 41 17 20 26 28 39 72 14 26 27 26 47 56 53 46
Wind_Direction_500mb
299 305 290 285 297 308 313 316 323 328 329 330 331 333 330 319 310 305 303 279 268 262 256 259 277 250 230 205 212 188 100 238 218 165 235 225 226 210 225 219 198 207 230 234 199
298 302 297 293 284 286 293 299 306 313 319 322 323 328 331 326 316 311 290 269 255 256 259 259 261 242 188 170 192 183 167 232 214 191 207 231 214 334 211 206 233 242 240 236 208
279 280 284 288 294 288 283 285 289 298 308 313 316 321 327 330 322 282 275 293 250 259 261 254 239 217 207 189 189 197 220 187 234 220 215 231 251 255 196 255 243 245 265 236 212
278 283 286 288 289 287 287 283 284 290 295 304 310 314 322 329 299 290 260 267 261 261 255 233 217 187 197 195 203 206 247 215 231 226 198 222 248 247 222 255 277 280 296 252 218
275 280 281 284 282 290 292 286 287 285 287 290 300 305 312 309 280 272 269 263 260 260 263 245 214 191 194 199 206 192 259 239 248 246 250 255 243 251 255 271 274 277 271 257 233
279 282 289 296 281 281 289 288 294 296 288 288 290 291 294 286 272 281 275 268 259 260 251 237 232 227 266 224 173 317 268 277 276 251 248 223 252 213 257 261 262 262 259 251 241
283 275 283 284 282 279 278 282 280 286 291 285 286 280 270 260 270 280 274 268 248 241 239 236 236 218 180 287 276 278 299 295 229 252 249 238 270 215 253 256 261 253 252 248 243
278 279 278 278 280 278 280 281 282 285 291 287 280 279 260 277 287 276 270 255 245 237 250 243 238 238 222 300 342 332 106 292 266 199 230 173 254 256 258 239 244 249 250 249 247
274 276 276 276 273 277 276 280 286 289 277 287 274 273 270 270 278 252 248 252 247 240 235 228 209 221 185 128 355 350 242 219 280 213 179 191 225 255 261 227 238 246 250 251 250
284 275 282 278 287 273 277 277 278 276 270 269 251 257 247 245 256 260 235 246 196 183 189 205 212 165 67 129 214 208 220 266 224 314 216 267 264 264 266 229 240 249 250 251 253
283 282 284 278 276 282 272 272 275 263 231 210 220 214 268 233 232 213 193 175 155 170 172 200 185 201 201 212 297 180 217 232 248 276 256 240 250 260 260 236 243 254 252 250 251
285 278 282 286 281 281 278 261 231 260 274 238 243 245 241 251 274 220 187 177 172 180 148 136 234 215 211 209 227 248 247 244 274 270 212 278 265 252 254 238 238 245 252 253 256
282 276 279 273 279 270 275 273 263 263 263 240 237 242 236 230 235 226 201 194 169 176 191 200 214 200 193 191 212 230 236 229 225 315 261 311 280 238 257 231 243 247 253 257 253
286 275 272 277 269 266 263 273 276 268 256 241 212 244 222 215 244 229 221 194 207 214 160 229 231 205 186 221 198 242 199 205 205 177 248 140 279 234 246 239 231 245 246 249 249
291 286 275 266 252 236 262 263 298 297 253 222 207 222 208 183 168 208 223 211 226 186 146 226 174 193 218 217 172 237 173 192 188 210 2 232 277 274 220 254 241 238 246 251 250
285 285 285 269 258 259 262 278 291 241 241 274 171 185 163 204 237 102 170 201 225 173 266 239 210 175 205 188 193 183 96 88 97 129 222 238 188 275 233 237 237 231 246 254 253
274 278 274 265 259 263 255 229 223 225 334 272 348 239 232 201 215 170 172 192 175 166 222 225 233 202 177 156 141 176 140 213 270 187 233 171 169 241 236 250 232 246 254 256 255
267 272 267 257 254 241 214 187 227 230 222 308 72 327 327 282 213 213 182 203 219 289 155 202 249 190 196 207 172 195 191 185 203 201 223 140 214 241 221 246 252 260 259 260 259
269 262 258 248 238 230 203 214 196 203 211 266 320 262 290 276 250 204 217 216 206 204 199 177 249 160 201 180 167 195 198 214 318 339 191 207 275 289 254 261 261 251 255 257 260
271 256 255 250 232 221 218 238 221 215 158 139 178 192 224 268 328 342 271 209 219 209 210 225 268 209 201 129 224 186 158 196 216 225 246 260 267 236 259 240 255 264 255 269 268
269 237 252 232 215 203 226 219 214 223 159 164 218 240 222 289 179 270 257 309 258 202 202 198 181 269 132 203 180 165 204 207 185 178 213 249 253 209 219 228 243 262 275 282 290
262 268 241 187 178 177 227 188 189 177 199 212 209 235 261 236 274 265 251 249 284 308 213 207 183 192 202 241 225 220 207 199 194 219 227 224 243 251 219 244 256 271 307 319 302
244 224 207 186 183 192 277 235 215 192 177 171 214 208 195 243 273 268 274 239 275 328 324 246 211 150 340 348 180 208 215 213 228 11 221 216 250 263 251 250 256 252 329 336 331
222 217 194 204 204 194 168 205 217 215 215 188 201 218 268 259 235 250 268 275 246 267 286 312 244 203 215 220 140 205 198 211 207 232 241 238 244 263 277 269 248 276 274 275 302
207 229 197 208 210 197 185 166 195 218 203 196 258 224 218 254 269 252 260 269 266 255 255 191 272 225 225 200 184 203 212 199 209 226 219 243 240 246 233 255 278 266 276 278 301
237 187 189 164 198 198 191 223 203 197 157 208 223 199 190 226 222 256 264 263 269 274 246 233 241 232 234 198 196 224 214 211 213 226 237 250 260 237 249 244 266 274 260 276 289
235 232 210 183 181 184 196 217 218 172 215 216 210 222 223 237 225 249 272 280 274 264 259 222 329 328 226 193 161 298 228 211 217 221 220 238 245 133 228 231 237 258 269 273 279
Wind_Speed_850mb
29 26 27 28 26 31 31 28 27 29 31 34 34 35 37 40 38 35 33 23 23 23 24 24 18 15 10 10 15 12 3 8 11 14 9 7 5 2 5 10 14 17 16 11 11
26 26 29 29 32 29 27 30 31 29 30 34 37 35 37 42 41 39 23 27 28 29 26 25 20 16 9 11 12 11 8 15 14 14 9 5 7 3 5 6 10 20 29 24 20
31 31 34 34 29 34 36 35 33 32 33 35 38 38 38 43 38 6 7 4 6 15 18 18 18 14 12 12 18 11 16 10 12 27 14 8 9 7 7 6 23 22 31 36 35
33 36 39 39 38 39 37 39 39 36 33 33 39 41 38 38 11 5 8 7 7 9 11 10 15 12 10 12 16 6 24 19 12 22 9 10 8 10 19 25 33 26 30 37 45
43 45 49 44 40 36 35 37 37 39 36 31 34 41 39 25 26 22 23 23 19 16 12 9 14 11 9 9 8 7 13 11 39 37 35 32 27 28 24 45 41 38 35 34 49
34 35 36 35 37 37 35 33 36 37 36 32 31 39 34 15 12 16 19 25 29 22 15 11 6 9 10 9 11 3 14 23 22 26 19 12 20 12 24 28 35 37 42 43 50
49 46 40 38 36 40 40 40 41 43 38 35 30 32 42 53 28 42 42 35 28 23 18 13 13 13 2 8 8 10 10 15 14 19 13 25 17 23 79 66 58 44 41 42 49
49 43 42 46 40 37 38 43 41 41 39 35 35 33 38 54 65 60 41 48 41 31 24 15 13 11 11 9 10 4 3 7 9 23 24 21 18 19 45 61 71 61 54 51 50
42 44 48 49 55 47 40 40 36 36 42 32 36 29 35 45 43 7 9 25 33 45 35 16 7 13 8 8 8 8 8 15 13 20 5 18 7 10 23 45 60 68 68 64 63
43 52 53 43 44 54 51 44 46 41 38 30 30 18 38 29 15 12 14 11 13 20 20 22 15 5 3 7 16 22 12 9 9 2 7 8 15 25 42 20 50 63 64 62 61
49 47 47 43 37 34 46 49 42 18 37 32 18 33 4 12 16 15 11 14 16 16 12 9 7 17 24 30 2 4 8 10 5 8 6 14 21 34 41 29 43 59 59 60 62
41 42 45 41 42 36 31 27 25 6 19 46 65 59 58 44 16 25 20 17 13 11 10 3 28 21 15 13 15 12 9 12 11 13 7 15 30 25 22 20 43 60 65 76 71
43 42 43 35 38 36 36 44 45 41 16 26 60 75 63 71 47 45 35 17 10 14 17 15 9 15 26 13 20 24 35 14 15 6 10 7 33 15 22 34 54 67 73 76 74
39 39 37 35 34 34 32 29 29 37 13 13 25 42 53 43 29 84 58 28 11 24 18 16 20 15 11 18 24 32 20 18 13 8 12 5 21 20 15 18 17 43 58 78 75
37 37 35 26 26 18 16 11 17 23 17 7 13 18 37 56 15 33 86 58 45 18 15 24 15 17 26 21 24 16 18 23 16 15 4 15 6 11 12 27 22 26 63 76 71
42 36 33 32 36 38 33 28 20 6 17 6 5 13 19 49 6 8 29 40 24 10 10 18 6 16 20 14 29 7 6 6 6 8 9 33 20 38 20 21 17 19 59 66 66
47 41 35 34 40 28 22 12 7 13 15 8 7 7 19 24 34 11 21 34 20 16 28 22 33 5 9 9 7 15 12 3 1 6 19 10 21 42 14 11 15 19 49 65 67
47 45 41 42 33 28 21 7 16 8 12 11 3 24 17 12 23 26 19 32 39 4 7 25 20 34 24 37 15 33 28 11 15 10 9 11 16 21 26 34 42 50 65 64 48
48 51 55 48 38 36 23 14 14 14 7 7 19 23 25 25 15 37 26 39 31 39 22 14 16 4 14 16 31 15 18 30 5 2 2 11 15 14 16 21 18 39 42 56 59
53 61 79 57 42 39 15 23 14 16 11 6 7 7 9 16 5 22 11 17 43 41 10 11 5 10 4 12 13 22 14 13 9 6 9 10 10 12 5 24 24 21 19 40 40
62 33 65 44 50 27 18 15 15 19 16 10 10 7 13 8 8 8 11 31 40 17 43 6 9 2 9 16 30 13 14 12 12 10 12 14 18 16 29 25 17 12 23 28 28
55 15 36 61 20 10 26 17 15 11 35 20 11 15 18 7 10 10 23 24 36 33 30 43 9 10 18 7 6 27 41 30 13 15 24 9 25 8 12 6 6 15 17 14 17
48 34 31 70 18 18 7 10 27 16 15 15 17 16 12 8 10 14 23 9 33 14 7 5 15 1 11 6 2 13 26 32 36 5 27 18 27 11 12 10 12 16 7 7 8
28 11 25 62 35 35 16 11 11 30 17 19 11 12 16 25 22 13 30 21 18 32 38 37 14 33 32 32 15 14 18 34 21 22 43 35 35 23 11 14 8 20 13 10 11
42 14 26 8 27 38 34 24 22 16 21 38 9 40 25 10 12 26 40 38 36 29 19 8 16 29 42 11 13 19 31 27 40 51 29 61 47 39 19 21 17 21 21 22 29
35 15 16 14 45 26 26 17 32 24 17 13 23 13 17 25 38 30 34 25 24 7 13 11 23 23 19 20 18 13 16 29 41 48 40 58 47 20 20 32 30 46 22 32 39
63 65 30 18 23 27 24 51 46 23 24 39 28 20 30 39 20 53 43 45 41 25 16 12 9 2 18 10 15 7 41 17 20 26 28 39 72 14 26 27 26 47 56 53 46
Wind_Direction_850mb
299 305 290 285 297 308 313 316 323 328 329 330 331 333 330 319 310 305 303 279 268 262 256 259 277 250 230 205 212 188 100 238 218 165 235 225 226 210 225 219 198 207 230 234 199
298 302 297 293 284 286 293 299 306 313 319 322 323 328 331 326 316 311 290 269 255 256 259 259 261 242 188 170 192 183 167 232 214 191 207 231 214 334 211 206 233 242 240 236 208
279 280 284 288 294 288 283 285 289 298 308 313 316 321 327 330 322 282 275 293 250 259 261 254 239 217 207 189 189 197 220 187 234 220 215 231 251 255 196 255 243 245 265 236 212
278 283 286 288 289 287 287 283 284 290 295 304 310 314 322 329 299 290 260 267 261 261 255 233 217 187 197 195 203 206 247 215 231 226 198 222 248 247 222 255 277 280 296 252 218
275 280 281 284 282 290 292 286 287 285 287 290 300 305 312 309 280 272 269 263 260 260 263 245 214 191 194 199 206 192 259 239 248 246 250 255 243 251 255 271 274 277 271 257 233
279 282 289 296 281 281 289 288 294 296 288 288 290 291 294 286 272 281 275 268 259 260 251 237 232 227 266 224 173 317 268 277 276 251 248 223 252 213 257 261 262 262 259 251 241
283 275 283 284 282 279 278 282 280 286 291 285 286 280 270 260 270 280 274 268 248 241 239 236 236 218 180 287 276 278 299 295 229 252 249 238 270 215 253 256 261 253 252 248 243
278 279 278 278 280 278 280 281 282 285 291 287 280 279 260 277 287 276 270 255 245 237 250 243 238 238 222 300 342 332 106 292 266 199 230 173 254 256 258 239 244 249 250 249 247
274 276 276 276 273 277 276 280 286 289 277 287 274 273 270 270 278 252 248 252 247 240 235 228 209 221 185 128 355 350 242 219 280 213 179 191 225 255 261 227 238 246 250 251 250
284 275 282 278 287 273 277 277 278 276 270 269 251 257 247 245 256 260 235 246 196 183 189 205 212 165 67 129 214 208 220 266 224 314 216 267 264 264 266 229 240 249 250 251 253
283 282 284 278 276 282 272 272 275 263 231 210 220 214 268 233 232 213 193 175 155 170 172 200 185 201 201 212 297 180 217 232 248 276 256 240 250 260 260 236 243 254 252 250 251
285 278 282 286 281 281 278 261 231 260 274 238 243 245 241 251 274 220 187 177 172 180 148 136 234 215 211 209 227 248 247 244 274 270 212 278 265 252 254 238 238 245 252 253 256
282 276 279 273 279 270 275 273 263 263 263 240 237 242 236 230 235 226 201 194 169 176 191 200 214 200 193 191 212 230 236 229 225 315 261 311 280 238 257 231 243 247 253 257 253
286 275 272 277 269 266 263 273 276 268 256 241 212 244 222 215 244 229 221 194 207 214 160 229 231 205 186 221 198 242 199 205 205 177 248 140 279 234 246 239 231 245 246 249 249
291 286 275 266 252 236 262 263 298 297 253 222 207 222 208 183 168 208 223 211 226 186 146 226 174 193 218 217 172 237 173 192 188 210 2 232 277 274 220 254 241 238 246 251 250
285 285 285 269 258 259 262 278 291 241 241 274 171 185 163 204 237 102 170 201 225 173 266 239 210 175 205 188 193 183 96 88 97 129 222 238 188 275 233 237 237 231 246 254 253
274 278 274 265 259 263 255 229 223 225 334 272 348 239 232 201 215 170 172 192 175 166 222 225 233 202 177 156 141 176 140 213 270 187 233 171 169 241 236 250 232 246 254 256 255
267 272 267 257 254 241 214 187 227 230 222 308 72 327 327 282 213 213 182 203 219 289 155 202 249 190 196 207 172 195 191 185 203 201 223 140 214 241 221 246 252 260 259 260 259
269 262 258 248 238 230 203 214 196 203 211 266 320 262 290 276 250 204 217 216 206 204 199 177 249 160 201 180 167 195 198 214 318 339 191 207 275 289 254 261 261 251 255 257 260
271 256 255 250 232 221 218 238 221 215 158 139 178 192 224 268 328 342 271 209 219 209 210 225 268 209 201 129 224 186 158 196 216 225 246 260 267 236 259 240 255 264 255 269 268
269 237 252 232 215 203 226 219 214 223 159 164 218 240 222 289 179 270 257 309 258 202 202 198 181 269 132 203 180 165 204 207 185 178 213 249 253 209 219 228 243 262 275 282 290
262 268 241 187 178 177 227 188 189 177 199 212 209 235 261 236 274 265 251 249 284 308 213 207 183 192 202 241 225 220 207 199 194 219 227 224 243 251 219 244 256 271 307 319 302
244 224 207 186 183 192 277 235 215 192 177 171 214 208 195 243 273 268 274 239 275 328 324 246 211 150 340 348 180 208 215 213 228 11 221 216 250 263 251 250 256 252 329 336 331
222 217 194 204 204 194 168 205 217 215 215 188 201 218 268 259 235 250 268 275 246 267 286 312 244 203 215 220 140 205 198 211 207 232 241 238 244 263 277 269 248 276 274 275 302
207 229 197 208 210 197 185 166 195 218 203 196 258 224 218 254 269 252 260 269 266 255 255 191 272 225 225 200 184 203 212 199 209 226 219 243 240 246 233 255 278 266 276 278 301
237 187 189 164 198 198 191 223 203 197 157 208 223 199 190 226 222 256 264 263 269 274 246 233 241 232 234 198 196 224 214 211 213 226 237 250 260 237 249 244 266 274 260 276 289
235 232 210 183 181 184 196 217 218 172 215 216 210 222 223 237 225 249 272 280 274 264 259 222 329 328 226 193 161 298 228 211 217 221 220 238 245 133 228 231 237 258 269 273 279